TimeEDT,TemperatureF,Dew PointF,Humidity,Sea Level PressureIn,VisibilityMPH,Wind Direction,Wind SpeedMPH,Gust SpeedMPH,PrecipitationIn,Events,Conditions,WindDirDegrees,DateUTC
12:54 AM,57.9,48.0,70,30.11,10.0,Calm,Calm,-,N/A,,Clear,0,2013-06-05 04:54:00
1:54 AM,54.0,48.0,80,30.12,10.0,NNW,3.5,-,N/A,,Clear,330,2013-06-05 05:54:00
2:54 AM,55.0,46.9,74,30.12,10.0,Calm,Calm,-,N/A,,Clear,0,2013-06-05 06:54:00
3:54 AM,52.0,44.1,74,30.13,10.0,Calm,Calm,-,N/A,,Clear,0,2013-06-05 07:54:00
4:54 AM,50.0,45.0,83,30.14,10.0,Calm,Calm,-,N/A,,Clear,0,2013-06-05 08:54:00
5:54 AM,52.0,44.1,74,30.16,10.0,NNW,3.5,-,N/A,,Clear,330,2013-06-05 09:54:00
6:54 AM,55.0,46.9,74,30.18,10.0,NNW,4.6,-,N/A,,Clear,330,2013-06-05 10:54:00
7:54 AM,61.0,46.9,60,30.19,10.0,North,3.5,-,N/A,,Clear,10,2013-06-05 11:54:00
8:54 AM,66.0,46.9,50,30.20,10.0,NE,4.6,-,N/A,,Clear,40,2013-06-05 12:54:00
9:54 AM,69.1,48.9,49,30.21,10.0,Calm,Calm,-,N/A,,Clear,0,2013-06-05 13:54:00
10:54 AM,71.1,46.9,42,30.19,10.0,Variable,3.5,-,N/A,,Clear,0,2013-06-05 14:54:00
11:54 AM,73.9,46.9,38,30.18,10.0,North,-9999.0,-,N/A,,Clear,0,2013-06-05 15:54:00
12:54 PM,73.0,51.1,46,30.16,10.0,ESE,9.2,-,N/A,,Clear,120,2013-06-05 16:54:00
1:54 PM,73.9,51.1,45,30.14,10.0,East,9.2,-,N/A,,Clear,100,2013-06-05 17:54:00
2:54 PM,73.0,53.1,49,30.14,10.0,East,8.1,-,N/A,,Clear,100,2013-06-05 18:54:00
3:54 PM,72.0,48.9,44,30.13,10.0,ESE,10.4,-,N/A,,Clear,120,2013-06-05 19:54:00
4:54 PM,71.1,50.0,47,30.14,10.0,East,10.4,-,N/A,,Clear,100,2013-06-05 20:54:00
5:54 PM,70.0,53.1,55,30.14,10.0,ESE,8.1,-,N/A,,Clear,120,2013-06-05 21:54:00
6:54 PM,66.9,54.0,63,30.14,10.0,East,6.9,-,N/A,,Clear,90,2013-06-05 22:54:00
7:54 PM,64.0,53.1,67,30.14,10.0,ESE,5.8,-,N/A,,Clear,120,2013-06-05 23:54:00
8:54 PM,60.1,54.0,80,30.13,10.0,ESE,5.8,-,N/A,,Clear,120,2013-06-06 00:54:00
9:54 PM,57.9,55.0,90,30.14,10.0,ESE,4.6,-,N/A,,Clear,110,2013-06-06 01:54:00
10:54 PM,57.0,55.0,93,30.14,10.0,ESE,4.6,-,N/A,,Clear,110,2013-06-06 02:54:00
11:54 PM,60.1,57.0,90,30.14,10.0,SSE,4.6,-,N/A,,Clear,150,2013-06-06 03:54:00